Regional Weather Roundup
Issued by NWS

Home | Current Version | Previous Version | Text Only | Print | Product List | Glossary Off
Versions: 1 2 3 4 5 6 7 8 9 10 11 12 13 14 15 16 17 18 19 20 21 22 23 24 25 26 27 28 29 30 31 32 33 34 35 36 37 38 39 40 41 42 43 44 45 46 47 48 49 50

000
ASUS43 KMKX 280511
RWRWI

WISCONSIN REGIONAL WEATHER ROUNDUP
NATIONAL WEATHER SERVICE MILWAUKEE/SULLIVAN WI
1200 AM CDT WED SEP 28 2016

NOTE: "FAIR" INDICATES FEW OR NO CLOUDS BELOW 12,000 FEET WITH NO
SIGNIFICANT WEATHER AND/OR OBSTRUCTIONS TO VISIBILITY.

WIZ001-002-006>008-014>016-023>028-280600-
NORTHWEST WISCONSIN

CITY           SKY/WX    TMP DP  RH WIND       PRES   REMARKS
SUPERIOR ARPT  CLOUDY    52  48  84 N10G16    29.88R
ASHLAND        CLOUDY    53  48  83 NW7       29.84R
HAYWARD        CLOUDY    48  46  93 N5        29.85R
SIREN          PTCLDY    47  45  94 N5        29.89R
CUMBERLAND     CLOUDY    46  45  93 N9        29.86S
RICE LAKE      CLOUDY    48  45  88 NW7       29.87R
CHETEK         NOT AVBL
LADYSMITH      CLOUDY    49  47  93 NW7       29.84R
EAU CLAIRE     CLOUDY    48  46  93 NW6       29.84R
MENOMONIE      CLOUDY    48  48 100 NW9       29.86R
NEW RICHMOND   CLOUDY    47  46  95 N8        29.88R
OSCEOLA        CLOUDY    48  48 100 N7        29.92R
$$

WIZ003>005-009-010-017-018-280600-
NORTH CENTRAL WISCONSIN

CITY           SKY/WX    TMP DP  RH WIND       PRES   REMARKS
MANITOWISH WTR NOT AVBL
ARBOR VITAE    RAIN      50  49  97 NW7       29.77R
WOODRUFF       RAIN      50  49  97 NW7       29.77R
RHINELANDER    LGT RAIN  48  48 100 MISG      29.76S
EAGLE RIVER    DRIZZLE   49  49 100 NW3       29.75R
LAND O LAKES   CLOUDY    50  49  97 N6        29.77R
PHILLIPS       CLOUDY    46  46 100 NW5       29.80R
TOMAHAWK       CLOUDY    46  45  94 NW6       29.78S
MEDFORD        CLOUDY    46  46 100 N13       29.79R
MERRILL        CLOUDY    48  47  97 NW3       29.78S
$$

WIZ029-030-035-036-043>047-280600-
CENTRAL WISCONSIN

CITY           SKY/WX    TMP DP  RH WIND       PRES   REMARKS
WAUSAU         CLOUDY    48  46  93 NW7       29.76R
MOSINEE        CLOUDY    46  46 100 NW8       29.78S FOG
MARSHFIELD     CLOUDY    49  45  86 NW12      29.78S
STEVENS POINT  CLOUDY    47  47 100 NW5       29.78S
WAUPACA        CLOUDY    51  50  95 W3        29.77R
WAUTOMA        CLOUDY    49  47  93 NW5       29.78S
WISC RAPIDS    CLOUDY    48  48 100 NW7       29.79S
CAMP DOUGLAS   CLOUDY    48  47  95 NW8       29.80R
$$

WIZ011>013-019>022-031-037>040-048>050-280600-
NORTHEAST WISCONSIN

CITY           SKY/WX    TMP DP  RH WIND       PRES   REMARKS
ANTIGO         CLOUDY    47  47  97 CALM      29.75S
SHAWANO        CLOUDY    51  48  88 CALM      29.75S
OCONTO         NOT AVBL
STURGEON BAY   CLOUDY    51  48  89 NW5       29.74R
GREEN BAY      CLOUDY    50  50 100 W7        29.75R
MANITOWOC      CLOUDY    51  48  89 MISG      29.75S
APPLETON       CLOUDY    48  48 100 W7        29.74S
CLINTONVILLE   NOT AVBL
OSHKOSH        CLOUDY    49  47  93 W7        29.76R
$$

WIZ032>034-041-042-053>061-280600-
SOUTHWEST WISCONSIN

CITY           SKY/WX    TMP DP  RH WIND       PRES   REMARKS
LA CROSSE      CLOUDY    51  47  86 N10       29.83R
SPARTA         CLOUDY    48  47  97 NW3       29.82S
VIROQUA        CLOUDY    47  46  97 NW6       29.81S
BOSCOBEL       PTCLDY    51  46  83 NW5       29.82S
PRAIRIE DU CHI CLOUDY    51  44  76 NW8       29.82R
PLATTEVILLE    PTCLDY    50  47  92 NW5       29.81S
$$

WIZ056-057-062-063-064-067-068-280600-
SOUTH CENTRAL WISCONSIN

CITY           SKY/WX    TMP DP  RH WIND       PRES   REMARKS
REEDSBURG      NOT AVBL
BARABOO/DELLS  CLOUDY    47  46  95 W5        29.79S
LONE ROCK      MOCLDY    50  46  86 NW7       29.81S
MINERAL POINT  CLOUDY    50  46  87 NW3       29.80S
MADISON        LGT RAIN  48  46  93 CALM      29.78F
MIDDLETON      CLOUDY    49  49  99 NW5       29.80S
WATERTOWN      LGT RAIN  48  48 100 W5        29.78S
MONROE         DRIZZLE   48  46  93 W5        29.79S
JANESVILLE     DRIZZLE   50  48  93 CALM      29.78F
$$

WIZ051-052-058>065-066-070>072-280600-
SOUTHEAST WISCONSIN

CITY           SKY/WX    TMP DP  RH WIND       PRES   REMARKS
MILWAUKEE      LGT RAIN  51  47  86 NW6       29.78F
WAUKESHA       LGT RAIN  46  45  93 W3        29.78F
MILWAUKEE/TIMM DRIZZLE   48  45  87 W5        29.78F
RACINE         CLOUDY    51  46  83 W5        29.80F
BURLINGTON     CLOUDY    48  45  87 SW5       29.80R
KENOSHA        CLOUDY    51  46  83 SW9       29.80S
FOND DU LAC    LGT RAIN  50  47  89 W6        29.77S
SHEBOYGAN      CLOUDY    50  47  89 W6        29.76R
WEST BEND      LGT RAIN  48  46  93 W5        29.77S
JUNEAU         DRIZZLE   47  47  97 CALM      29.78S
$$

LSZ147-162-280600-
LAKE SUPERIOR

STATION/POSITION TIME  TEMP    WIND        PRES    WAVE
                       AIR SEA DIR/SP/G            HT/PER
                 (UTC) (F)     (DEG/KT/KT) (MB)    (FT/S)
W MID LAKE BUOY  0450   56 53   20/ 23/ 27 1008.5R   4/ 5
DEVILS ISLAND    0400   53     340/ 20/ 23 1010.0R
SAXON HARBOR     0400   56     340/ 19/ 23 1008.8R
$$

LMZ867-665-643>646-280600-
LAKE MICHIGAN

STATION/POSITION TIME  TEMP    WIND        PRES    WAVE
                       AIR SEA DIR/SP/G            HT/PER
                 (UTC) (F)     (DEG/KT/KT) (MB)    (FT/S)
CHAMBERS ISLAND  0400   53     270/  4/  8 1006.4R
N MID LAKE BUOY  0450   55 66  290/  4/  8 1006.0R   3/ 5
NORTHPORT PIER   0400   54     290/  4/  8 1006.4
SISTER BAY       0308   55     330/ 12/ 14   N/A
KEWAUNEE LAKESHO 0400   51     290/  5/  6 1006.5R
SHEBOYGAN LAKESH 0500   50     250/  8/ 10 1007.4F
PORT WASHINGTON  0440   51     270/  4/  7 1008.8F
ATWATER BUOY     0400   52 54  270/  6/  8 1008.5R
MILWAUKEE LAKESH 0410   51     270/  5/  7   N/A
S MID LAKE BUOY  0450   57 70  290/ 14/ 19 1008.0R   2/ 5
KENOSHA   LAKESH 0500   53     240/  6/  8 1009.1S
$$

TC  - TEMPERATURE IN CELSIUS
VSB - VISIBILITY IN STATUTE MILES
WCI - WIND CHILL INDEX
HX  - HEAT INDEX




USA.gov is the U.S. government's official web portal to all federal, state and local government web resources and services.